sat.trackr.live / text

‹ back to catalog

STARLINK-36711

NORAD 68040 · 2026-041A

PAYLOAD ACTIVE UNKNOWN

§ Identity

Operator
Country
US
Launch date
2026-03-02
Launch site
AFETR
Launch vehicle
Mass (kg)
RCS (m²)

Purposes: comms

External: N2YO · Heavens-Above · Gunter

§ Orbital elements

Epoch: 2026-05-25T01:08:14.801856Z

Period
93.85 min
Inclination
53.1580°
Eccentricity
0.0000952
Mean motion
15.34402859 rev/d
Perigee alt
462.0 km
Apogee alt
463.3 km
Semi-major
6,840.8 km
B*
3.5334e-4
RAAN
53.4645°
Arg perigee
80.5322°
Mean anomaly
279.5788°
Rev number
1,310

§ Raw data

STARLINK-367111 68040U 26041A   26145.04739354  .00011581  00000+0  35334-3 0  99902 68040  53.1580  53.4645 0000952  80.5322 279.5788 15.34402859 13107

JSON: /api/v1/satellites/68040 · /tle

For live sub-satellite position, see the globe view (requires WebGL).

§ Visibility from observer

Set your observer location to see the next 7 days of passes ≥ 10°. The values pass through the URL so the page stays shareable.

No JS? Fill the form by hand. The geolocation button needs JavaScript.